KD2PME Weather Reports


Display with metric or nautical units.
time (UTC)temp
F
wind
direction
speed
MPH
gust
MPH
rain 1hr
in
rain 24hr
in
rain mn
in
humidity
%
barometer
mb
20260904214540 85 259 1.0 5.0 0.00 0.00 0.00 43 1010.9
20260904213004 84 285 2.0 7.0 0.00 0.00 0.00 43 1010.9
20260904211517 84 7 3.0 10.0 0.00 0.00 0.00 43 1011.0
20260904210025 85 294 3.0 9.0 0.00 0.00 0.00 42 1011.0
20260904204525 84 13 3.0 10.0 0.00 0.00 0.00 42 1011.0
20260904203030 85 37 2.0 7.0 0.00 0.00 0.00 42 1011.0
20260904201509 84 193 2.0 9.0 0.00 0.00 0.00 42 1011.0
20260904200012 83 30 6.0 10.0 0.00 0.00 0.00 42 1011.1
20260904194519 83 65 2.0 11.0 0.00 0.00 0.00 42 1011.4
20260904193027 83 307 4.0 11.0 0.00 0.00 0.00 42 1011.6
20260904191529 83 313 5.0 10.0 0.00 0.00 0.00 42 1011.8
20260904190011 84 22 2.0 7.0 0.00 0.00 0.00 41 1011.6
20260904184516 83 304 2.0 9.0 0.00 0.00 0.00 42 1011.7
20260904183020 84 278 4.0 8.0 0.00 0.00 0.00 40 1011.7
20260904181526 83 5 6.0 12.0 0.00 0.00 0.00 40 1011.7
20260904180034 83 333 3.0 8.0 0.00 0.00 0.00 40 1011.7
20260904174532 83 340 6.0 10.0 0.00 0.00 0.00 39 1011.5
20260904173016 83 268 4.0 9.0 0.00 0.00 0.00 39 1011.6
20260904171502 83 332 5.0 13.0 0.00 0.00 0.00 39 1011.7
20260904170003 83 311 6.0 10.0 0.00 0.00 0.00 38 1011.6
20260904164508 83 40 5.0 14.0 0.00 0.00 0.00 38 1011.6
20260904163023 83 316 2.0 14.0 0.00 0.00 0.00 37 1011.5
20260904161517 83 334 5.0 16.0 0.00 0.00 0.00 36 1011.6
20260904160004 83 321 5.0 12.0 0.00 0.00 0.00 36 1011.7
20260904154503 83 352 7.0 15.0 0.00 0.00 0.00 33 1011.9
20260904153018 83 37 5.0 12.0 0.00 0.00 0.00 31 1011.7
20260904151514 83 11 6.0 16.0 0.00 0.00 0.00 29 1011.9
20260904150028 82 297 3.0 8.0 0.00 0.00 0.00 19 1011.9
20260904144505 81 3 6.0 10.0 0.00 0.00 0.00 17 1011.8
20260904143008 80 12 4.0 8.0 0.00 0.00 0.00 13 1011.8
20260904141510 80 354 3.0 7.0 0.00 0.00 0.00 12 1012.0
20260904140015 79 326 3.0 11.0 0.00 0.00 0.00 5 1011.8
20260904134540 78 325 4.0 9.0 0.00 0.00 0.00 7 1011.8
20260904133003 77 352 4.0 8.0 0.00 0.00 0.00 7 1011.8
20260904131505 77 339 4.0 7.0 0.00 0.00 0.00 100 1011.6
20260904130027 77 23 5.0 11.0 0.00 0.00 0.00 100 1011.7
20260904124516 77 342 5.0 11.0 0.00 0.00 0.00 100 1011.5
20260904123023 77 339 3.0 12.0 0.00 0.00 0.00 100 1011.6
20260904121527 77 338 5.0 10.0 0.00 0.00 0.00 100 1011.6
20260904120008 77 323 4.0 9.0 0.00 0.00 0.00 100 1011.6
20260904114529 77 323 2.0 8.0 0.00 0.00 0.00 100 1011.5
20260904113017 76 23 2.0 7.0 0.00 0.00 0.00 100 1011.5
20260904111529 75 321 1.0 2.0 0.00 0.00 0.00 100 1011.5
20260904110030 74 25 0.0 1.0 0.00 0.00 0.00 100 1011.6
20260904104513 74 53 0.0 0.0 0.00 0.00 0.00 100 1011.4
20260904103018 74 53 0.0 1.0 0.00 0.00 0.00 100 1011.2
20260904101525 74 75 0.0 1.0 0.00 0.00 0.00 100 1011.0
20260904100030 74 75 0.0 1.0 0.00 0.00 0.00 100 1010.8
20260904094537 74 75 0.0 1.0 0.00 0.00 0.00 100 1010.6
20260904093012 74 108 0.0 2.0 0.00 0.00 0.00 100 1010.7
20260904091520 74 1 1.0 2.0 0.00 0.00 0.00 100 1010.9
20260904090028 74 354 0.0 0.0 0.00 0.00 0.00 100 1010.8
20260904084530 75 354 0.0 0.0 0.00 0.00 0.00 100 1010.8
20260904083041 75 354 0.0 0.0 0.00 0.00 0.00 100 1011.0
20260904081517 76 354 0.0 0.0 0.00 0.00 0.00 100 1011.1
20260904080023 76 354 0.0 2.0 0.00 0.01 0.00 100 1010.9
20260904074526 76 310 0.0 3.0 0.00 0.02 0.00 100 1010.9
20260904073029 76 332 0.0 3.0 0.00 0.03 0.00 100 1011.1
20260904071533 76 18 1.0 4.0 0.00 0.04 0.00 100 1010.8
20260904070019 76 345 2.0 4.0 0.00 0.04 0.00 100 1010.8
20260904064523 76 14 2.0 3.0 0.00 0.04 0.00 100 1010.9
20260904063033 76 15 2.0 3.0 0.00 0.04 0.00 100 1011.2
20260904061529 76 215 0.0 0.0 0.00 0.05 0.00 100 1011.1
20260904060005 76 215 0.0 0.0 0.00 0.06 0.00 100 1011.2
20260904054504 76 215 0.0 1.0 0.00 0.08 0.00 100 1011.5
20260904053003 76 228 0.0 1.0 0.00 0.08 0.00 100 1011.9
20260904051504 75 202 0.0 0.0 0.00 0.08 0.00 100 1011.8
20260904050006 75 203 0.0 0.0 0.00 0.08 0.00 100 1012.2
20260904044508 75 202 0.0 0.0 0.00 0.08 0.00 100 1012.3
20260904043006 75 202 0.0 0.0 0.00 0.08 0.00 100 1012.4
20260904041509 75 202 0.0 0.0 0.00 0.08 0.00 100 1012.5
20260904040008 75 202 0.0 0.0 0.00 0.08 0.00 100 1012.6
20260904034510 75 202 0.0 0.0 0.00 0.08 0.08 100 1012.5
20260904033006 75 202 0.0 0.0 0.00 0.08 0.08 100 1012.5
20260904031506 75 202 0.0 0.0 0.00 0.08 0.08 100 1012.5
20260904030008 75 202 0.0 0.0 0.00 0.08 0.08 100 1012.7
20260904024512 75 202 0.0 0.0 0.00 0.08 0.08 100 1013.0
20260904023010 75 202 0.0 0.0 0.00 0.08 0.08 100 1013.3
20260904021511 75 202 0.0 0.0 0.00 0.08 0.08 100 1013.3
20260904020006 75 202 0.0 0.0 0.00 0.08 0.08 100 1013.1
20260904014510 75 202 0.0 0.0 0.00 0.08 0.08 100 1013.3
20260904013010 75 202 0.0 0.0 0.00 0.08 0.08 100 1013.4
20260904011517 75 203 0.0 0.0 0.00 0.08 0.08 100 1013.5
20260904010011 75 203 0.0 0.0 0.00 0.08 0.08 100 1013.6
20260904004514 75 203 0.0 0.0 0.00 0.08 0.08 100 1013.6
20260904003019 75 203 0.0 0.0 0.00 0.08 0.08 100 1013.4
20260904001515 75 201 0.0 0.0 0.00 0.08 0.08 100 1013.5
20260904000016 76 201 0.0 0.0 0.00 0.08 0.08 100 1013.3
20260903234518 76 201 0.0 0.0 0.00 0.08 0.08 100 1012.9
20260903233018 77 201 0.0 0.0 0.00 0.08 0.08 100 1012.9
20260903231529 78 201 0.0 0.0 0.00 0.08 0.08 100 1012.9
20260903230019 79 201 0.0 1.0 0.00 0.08 0.08 100 1013.2
20260903224531 80 141 0.0 1.0 0.00 0.08 0.08 100 1013.3
20260903223017 81 162 0.0 1.0 0.00 0.08 0.08 100 1013.2
20260903221516 80 155 0.0 1.0 0.00 0.08 0.08 100 1013.2
20260903220020 81 162 0.0 0.0 0.00 0.08 0.08 100 1013.2